Afton Municipal Airport, WY

6:50 AM MST on December 09, 2019 (GMT -0700)
Afton Municipal

Weather History for KAFO - October, 2019

Change the Weather History Date:

Tuesday, October 8, 2019

  Actual Average Record
Temperature  
Mean Temperature 42 °F -  
Max Temperature 64 °F 61 °F 68 °F (2014)
Min Temperature 21 °F 25 °F 23 °F (2017)
Degree Days  
Heating Degree Days 22    
Moisture  
Dew Point 23 °F    
Average Humidity 51    
Maximum Humidity 86    
Minimum Humidity 21    
Precipitation  
Precipitation 0.00 in - - ()
Sea Level Pressure  
Sea Level Pressure 29.96 in    
Wind  
Wind Speed 4 mph ()    
Max Wind Speed 17 mph    
Max Gust Speed 26 mph    
Visibility 10.0 miles    
Events      
Averages and records for this station are not official NWS values.
T = Trace of Precipitation, MM = Missing Value Source: Averaged Metar Reports

Daily Weather History Graph

Daily Weather History Graph

Search for Another Location

Airport or City:

Astronomy

Oct. 08, 2019 Rise Set
Actual Time 7:28 AM MDT 6:53 PM MDT
Civil Twilight 7:00 AM MDT 7:21 PM MDT
Nautical Twilight 6:27 AM MDT 7:54 PM MDT
Astronomical Twilight 5:54 AM MDT 8:26 PM MDT
Moon 5:02 PM MDT (10/8) 2:12 AM MDT (10/8)
Length of Visible Light 12h 21m
Length of Day
11h 24m
Waxing Gibbous, 78% of the Moon is Illuminated
Oct 8
Waxing Gibbous
Oct 13
Full
Oct 21
Last Quarter
Oct 27
New
Nov 4
First Quarter

Hourly Weather History & Observations

Time (MDT) Temp. Windchill Dew Point Humidity Pressure Visibility Wind Dir Wind Speed Gust Speed Precip Events Conditions
12:15 AM 30.2 °F - 19.4 °F 64% 30.12 in 10.0 mi Calm Calm - N/A   Clear
12:35 AM 30.2 °F - 19.4 °F 64% 30.12 in 10.0 mi Calm Calm - N/A   Clear
12:55 AM 28.4 °F - 21.2 °F 74% 30.12 in 10.0 mi Calm Calm - N/A   Clear
1:15 AM 28.4 °F - 21.2 °F 74% 30.11 in 10.0 mi Calm Calm - N/A   Clear
1:55 AM 26.6 °F - 19.4 °F 74% 30.11 in 10.0 mi Calm Calm - N/A   Clear
2:15 AM 28.4 °F - 21.2 °F 74% 30.11 in 10.0 mi Calm Calm - N/A   Clear
2:35 AM 30.2 °F - 19.4 °F 64% 30.10 in 10.0 mi Calm Calm - N/A   Clear
2:55 AM 26.6 °F 22.6 °F 19.4 °F 74% 30.09 in 10.0 mi SSW 3.5 mph - N/A   Clear
3:15 AM 28.4 °F - 19.4 °F 69% 30.09 in 10.0 mi Calm Calm - N/A   Clear
3:35 AM 26.6 °F - 19.4 °F 74% 30.08 in 10.0 mi Calm Calm - N/A   Clear
3:55 AM 24.8 °F - 19.4 °F 80% 30.07 in 10.0 mi Calm Calm - N/A   Clear
4:15 AM 23.0 °F - 19.4 °F 86% 30.07 in 10.0 mi Calm Calm - N/A   Clear
4:35 AM 21.2 °F - 17.6 °F 86% 30.06 in 10.0 mi Calm Calm - N/A   Clear
4:55 AM 23.0 °F - 19.4 °F 86% 30.06 in 10.0 mi Calm Calm - N/A   Clear
5:15 AM 26.6 °F - 19.4 °F 74% 30.05 in 10.0 mi Calm Calm - N/A   Clear
5:35 AM 26.6 °F - 19.4 °F 74% 30.05 in 10.0 mi Calm Calm - N/A   Clear
5:55 AM 26.6 °F 22.6 °F 19.4 °F 74% 30.05 in 10.0 mi NNE 3.5 mph - N/A   Clear
6:15 AM 23.0 °F 18.4 °F 17.6 °F 80% 30.05 in 10.0 mi North 3.5 mph - N/A   Clear
6:35 AM 24.8 °F - 19.4 °F 80% 30.05 in 10.0 mi Calm Calm - N/A   Clear
6:55 AM 23.0 °F - 19.4 °F 86% 30.05 in 10.0 mi Calm Calm - N/A   Clear
7:15 AM 23.0 °F - 19.4 °F 86% 30.04 in 10.0 mi Calm Calm - N/A   Clear
7:35 AM 24.8 °F - 19.4 °F 80% 30.03 in 10.0 mi Calm Calm - N/A   Clear
7:55 AM 23.0 °F - 17.6 °F 80% 30.03 in 10.0 mi Calm Calm - N/A   Clear
8:15 AM 23.0 °F - 19.4 °F 86% 30.03 in 10.0 mi Calm Calm - N/A   Clear
8:35 AM 26.6 °F 22.6 °F 21.2 °F 80% 30.03 in 10.0 mi North 3.5 mph - N/A   Clear
8:55 AM 32.0 °F - 23.0 °F 69% 30.04 in 10.0 mi Calm Calm - N/A   Clear
9:15 AM 32.0 °F - 24.8 °F 75% 30.03 in 10.0 mi Calm Calm - N/A   Clear
9:35 AM 35.6 °F - 26.6 °F 70% 30.03 in 10.0 mi Calm Calm - N/A   Clear
9:55 AM 37.4 °F - 26.6 °F 65% 30.02 in 10.0 mi Calm Calm - N/A   Clear
10:15 AM 42.8 °F - 26.6 °F 53% 30.01 in 10.0 mi Calm Calm - N/A   Clear
10:35 AM 44.6 °F - 28.4 °F 53% 30.01 in 10.0 mi Calm Calm - N/A   Clear
10:55 AM 48.2 °F - 30.2 °F 50% 29.99 in 10.0 mi Calm Calm - N/A   Clear
11:15 AM 53.6 °F - 30.2 °F 41% 29.98 in 10.0 mi Calm Calm - N/A   Clear
11:35 AM 59.0 °F - 26.6 °F 29% 29.97 in 10.0 mi SSE 9.2 mph - N/A   Clear
11:55 AM 60.8 °F - 23.0 °F 23% 29.96 in 10.0 mi SSE 13.8 mph 20.7 mph N/A   Clear
12:15 PM 62.6 °F - 24.8 °F 24% 29.95 in 10.0 mi South 13.8 mph 21.9 mph N/A   Clear
12:35 PM 60.8 °F - 23.0 °F 23% 29.95 in 10.0 mi South 9.2 mph - N/A   Clear
12:55 PM 60.8 °F - 23.0 °F 23% 29.94 in 10.0 mi SE 10.4 mph 18.4 mph N/A   Clear
1:15 PM 60.8 °F - 23.0 °F 23% 29.94 in 10.0 mi SSW 10.4 mph 19.6 mph N/A   Clear
1:35 PM 62.6 °F - 26.6 °F 26% 29.93 in 10.0 mi SW 12.7 mph 19.6 mph N/A   Clear
1:55 PM 64.4 °F - 24.8 °F 22% 29.92 in 10.0 mi SSW 13.8 mph 20.7 mph N/A   Clear
2:15 PM 64.4 °F - 24.8 °F 22% 29.92 in 10.0 mi SW 13.8 mph 17.3 mph N/A   Clear
2:35 PM 62.6 °F - 23.0 °F 22% 29.91 in 10.0 mi SW 11.5 mph 26.5 mph N/A   Clear
2:55 PM 62.6 °F - 24.8 °F 24% 29.90 in 10.0 mi SSW 12.7 mph - N/A   Clear
3:15 PM 62.6 °F - 23.0 °F 22% 29.90 in 10.0 mi SSW 12.7 mph 20.7 mph N/A   Clear
3:35 PM 64.4 °F - 23.0 °F 21% 29.90 in 10.0 mi SW 16.1 mph 21.9 mph N/A   Clear
3:55 PM 62.6 °F - 23.0 °F 22% 29.89 in 10.0 mi SSW 12.7 mph 17.3 mph N/A   Clear
4:15 PM 62.6 °F - 24.8 °F 24% 29.89 in 10.0 mi SSW 16.1 mph 20.7 mph N/A   Clear
4:35 PM 62.6 °F - 23.0 °F 22% 29.88 in 10.0 mi SSW 15.0 mph - N/A   Clear
4:55 PM 62.6 °F - 23.0 °F 22% 29.87 in 10.0 mi SW 17.3 mph - N/A   Clear
5:15 PM 60.8 °F - 23.0 °F 23% 29.87 in 10.0 mi WSW 15.0 mph 20.7 mph N/A   Clear
5:35 PM 59.0 °F - 24.8 °F 27% 29.87 in 10.0 mi SW 8.1 mph - N/A   Clear
5:55 PM 55.4 °F - 23.0 °F 29% 29.87 in 10.0 mi SSW 12.7 mph - N/A   Clear
6:35 PM 51.8 °F - 26.6 °F 38% 29.87 in 10.0 mi SSW 8.1 mph - N/A   Clear
6:55 PM 50.0 °F - 26.6 °F 40% 29.86 in 10.0 mi South 6.9 mph - N/A   Clear
7:15 PM 46.4 °F 42.4 °F 26.6 °F 46% 29.86 in 10.0 mi South 8.1 mph - N/A   Clear
7:35 PM 51.8 °F - 23.0 °F 33% 29.86 in 10.0 mi SSE 12.7 mph - N/A   Clear
7:55 PM 51.8 °F - 23.0 °F 33% 29.86 in 10.0 mi SE 11.5 mph - N/A   Clear
8:15 PM 55.4 °F - 21.2 °F 26% 29.84 in 10.0 mi North - - N/A   Clear
8:35 PM 55.4 °F - 21.2 °F 26% 29.84 in 10.0 mi SE 12.7 mph 18.4 mph N/A   Clear
8:55 PM 53.6 °F - 23.0 °F 30% 29.83 in 10.0 mi South 11.5 mph 23.0 mph N/A   Clear
9:15 PM 50.0 °F - 23.0 °F 35% 29.83 in 10.0 mi South 10.4 mph - N/A   Clear
9:35 PM 41.0 °F 36.4 °F 26.6 °F 57% 29.82 in 10.0 mi SW 6.9 mph - N/A   Clear
9:55 PM 41.0 °F 37.1 °F 26.6 °F 57% 29.81 in 10.0 mi SSW 5.8 mph - N/A   Clear
10:15 PM 50.0 °F - 23.0 °F 35% 29.80 in 10.0 mi SSE 15.0 mph 19.6 mph N/A   Clear
10:35 PM 51.8 °F - 23.0 °F 33% 29.79 in 10.0 mi North - - N/A   Clear
10:55 PM 46.4 °F 40.4 °F 24.8 °F 43% 29.78 in 10.0 mi South 13.8 mph - N/A   Clear
11:15 PM 46.4 °F 40.4 °F 24.8 °F 43% 29.78 in 10.0 mi South 13.8 mph - N/A   Clear
11:35 PM 44.6 °F 38.4 °F 24.8 °F 46% 29.77 in 10.0 mi South 12.7 mph - N/A   Clear